[[{"header":{"parameterUnit":"m.s-1","parameterCategory":1,"la1":30.2991,"la2":30.254,"lo1":-89.0895,"lo2":-89.0444,"dy":0.0017,"dx":0.0017,"nx":28,"ny":28,"refTime":"2023-09-17T21:00:00:Z","depth":0,"parameterNumber":2,"parameterNumberName":"U-component_of_WINDS"},"data":[0,0,0,0,0,0,0,0,0,0,0,0,0,0,0,0,0,0,0,0,0,0,0,0,0,0,0,0,0,0,0,0,0,0,0,0,0,0,0,0,0,0,0,0,0,0,0,0,0,0,0,0,0,0,0,0,0,0,0.9736,0.9737,0,0.9791,0.9791,0.9792,0.98,0.98,0.9799,0.9799,0.9858,0.986,0.9862,0,0,0,0,0,0,0,0,0,0,0,0,0,0.9644,0.9646,0.9736,0.9737,0.9738,0.9791,0.9791,0.9792,0.9801,0.98,0.9799,0.9799,0.9857,0.9859,0.9862,0,0,0,0,0,0,0,0,0,0,0,0,0,0.969,0.9646,0.9736,0.9748,0.975,0.9791,0.9791,0.9792,0.9801,0.98,0.9799,0.9799,0.9856,0.9859,0.9862,0.9896,0,0,0.9871,0.9873,0,0,0,0,0,0,0,0,0.9687,0.9693,0.9746,0.9747,0.9749,0.9788,0.978,0.9827,0.9801,0.9781,0.9799,0.9798,0.9835,0.984,0.9852,0.9898,0.9901,0.9872,0.9873,0.9875,0.9876,0,0,0,0,0,0,0,0.9684,0.9691,0.9758,0.9746,0.9749,0.9752,0.9758,0.9789,0.9812,0.9783,0.9784,0.979,0.9836,0.9849,0.9853,0.9902,0.9872,0.9874,0.9876,0.9877,0.9982,0.9983,0,0,0,0,0,0,0.9678,0.9688,0.9756,0.976,0.9716,0.9755,0.9761,0.9776,0.9812,0.9816,0.9791,0.979,0.9844,0.985,0.9855,0.9899,0.9875,0.9878,0.9879,0.9981,0.9982,0.9983,0,0,0,0,0,0,0.9676,0.9684,0.9754,0.9724,0.9733,0.9757,0.9774,0.9778,0.9791,0.9817,0.9822,0.9799,0.9844,0.9851,0.9886,0.9901,0.9879,0.9882,0.998,0.9981,0.9983,0.9985,0,0,0,0,0,0,0.9673,0.9683,0.9695,0.9724,0.9735,0.9782,0.9775,0.9779,0.9796,0.9796,0.9827,0.9831,0.9844,0.9882,0.9889,0.9905,0.9884,0.9979,0.9981,0.9982,0.9984,0.9986,0.9989,0,0,0,0,0,0.967,0.9693,0.9695,0.9704,0.975,0.9783,0.9789,0.9803,0.9797,0.981,0.9827,0.983,0.9898,0.9885,0.9894,0.9911,0.9978,0.998,0.9982,0.9983,0.9986,0.9989,0,0,0,0,0,0,0.9666,0.9697,0.97,0.9733,0.9755,0.9784,0.9801,0.9805,0.983,0.9829,0.9846,0.9853,0.9887,0.9902,0.9887,0.9947,0.9938,0.9942,0.9935,0.9939,0.9941,0.9937,0.9887,0,0,0,0,0,0.9668,0.9692,0.9719,0.9746,0.9756,0.9777,0.9792,0.98,0.9824,0.9834,0.9854,0.9878,0.9905,0.9923,0.9949,0.9986,0.9994,1.0002,1.0005,1.0007,1.001,1.0034,1.0038,0.999,0.999,0.999,0,0,0.9675,0.9695,0.9708,0.9745,0.9763,0.9789,0.9785,0.9811,0.9831,0.9838,0.9873,0.9888,0.9917,0.9954,0.9971,0.9967,1.0025,1.0009,1.0011,1.0013,1.0036,1.0041,1.0045,0.9992,0.9991,0.9991,0,0,0.9699,0.9716,0.9741,0.976,0.9787,0.9801,0.9807,0.9836,0.9847,0.9882,0.9889,0.9913,0.9959,0.9979,0.9996,1.0031,1.0035,1.0039,1.0052,1.0075,1.0079,1.0082,1.0097,1.0101,1.0042,1.0042,1.0042,0,0.9704,0.9741,0.9754,0.9781,0.9798,0.9806,0.9833,0.9851,0.9886,0.9898,0.9893,0.9953,0.9972,1.0015,1.0024,1.0036,1.0046,1.0036,1.0077,1.008,1.0084,1.0098,1.0103,1.0043,1.0043,1.0043,1.0043,0,0.9746,0.9772,0.9789,0.9823,0.9842,0.9868,0.9888,0.9906,0.9913,0.9928,0.9965,0.9989,1.0022,1.0032,1.004,1.0078,1.0075,1.0073,1.0065,1.0089,1.0102,1.0108,1.0043,1.0043,1.0043,1.0043,0,0,0.9768,0.981,0.9816,0.9833,0.9865,0.9886,0.9914,0.9945,0.9962,0.9986,1.0012,1.0051,1.0051,1.007,1.008,1.01,1.0129,1.0097,1.0098,1.0103,1.0175,1.0177,1.0182,1.0132,1.0133,1.0134,1.0173,0,0.9797,0.9847,0.9861,0.9903,0.9929,0.9938,0.9963,0.9987,1.0002,1.0028,1.0045,1.0074,1.007,1.0082,1.0102,1.0121,1.0144,1.0119,1.0158,1.0159,1.0152,1.0189,1.0191,1.0226,1.0178,1.0179,1.018,0,0.9838,0.9863,0.9908,0.9939,0.9951,0.9973,1.0004,1.0027,1.0055,1.0065,1.0087,1.0097,1.0129,1.0119,1.0165,1.0147,1.0164,1.0177,1.0179,1.0184,1.0172,1.0197,1.0237,1.0243,1.0188,1.0187,1.0187,0,0.9851,0.9897,0.993,0.9944,0.9981,0.9996,1.0013,1.004,1.0059,1.0086,1.0099,1.0131,1.0148,1.0173,1.0192,1.0182,1.0237,1.0228,1.0248,1.0248,1.026,1.0259,1.0305,1.0269,1.0269,1.0269,1.0268,0,0.9883,0.9911,0.9937,0.9958,0.999,1.0007,1.0039,1.0056,1.0081,1.0106,1.0116,1.0141,1.0163,1.0191,1.0205,1.0243,1.025,1.0261,1.0265,1.0261,1.0259,1.0273,1.0271,1.027,1.027,1.0269,1.0269,0,0.9904,0.9922,0.996,0.9992,1.0001,1.0023,1.0052,1.0074,1.009,1.0123,1.0131,1.0157,1.0191,1.0212,1.0254,1.0264,1.0306,1.0308,1.0297,1.0299,1.0318,1.0317,1.0376,1.0386,1.0341,1.0342,1.0342,0,0.9923,0.9945,0.998,0.9997,1.0014,1.0042,1.0061,1.008,1.01,1.0135,1.0153,1.0187,1.0215,1.0269,1.0293,1.0327,1.0331,1.0349,1.0336,1.0332,1.0333,1.0332,1.0336,1.0352,1.0352,1.0352,1.0353,0,0.9957,0.9965,0.9992,1.0024,1.0046,1.0072,1.0098,1.0112,1.0135,1.0158,1.0192,1.0214,1.0258,1.0293,1.0329,1.0348,1.0355,1.0357,1.0364,1.036,1.0353,1.0359,1.0304,1.0355,1.0355,1.0355,1.0355,1.0355,0.9979,0.9999,1.0027,1.0058,1.0079,1.0104,1.0126,1.0146,1.0174,1.0211,1.0221,1.0258,1.0288,1.0337,1.0357,1.0387,1.0385,1.0394,1.0396,1.0399,1.04,1.0347,1.0393,1.0393,1.0393,1.0393,1.0393,0,1.0014,1.0033,1.0061,1.0097,1.0122,1.0125,1.0155,1.0176,1.0207,1.0235,1.0263,1.0304,1.0338,1.0365,1.0401,1.0421,1.0425,1.043,1.0429,1.0434,1.0399,1.0391,1.0426,1.0425,1.0425,1.0425,1.0425,1.0425,1.0035,1.0071,1.0084,1.0131,1.015,1.0186,1.0203,1.0226,1.0248,1.0293,1.0321,1.0339,1.0367,1.0405,1.0438,1.0445,1.0459,1.0463,1.0472,1.0439,1.0436,1.0432,1.0424,1.0466,1.0466,1.0503,1.0504,1.0504]},{"header":{"parameterUnit":"m.s-1","parameterCategory":1,"la1":30.2991,"la2":30.254,"lo1":-89.0895,"lo2":-89.0444,"dy":0.0017,"dx":0.0017,"nx":28,"ny":28,"refTime":"2023-09-17T21:00:00:Z","depth":0,"parameterNumber":3,"parameterNumberName":"V-component_of_WINDS"},"data":[0,0,0,0,0,0,0,0,0,0,0,0,0,0,0,0,0,0,0,0,0,0,0,0,0,0,0,0,0,0,0,0,0,0,0,0,0,0,0,0,0,0,0,0,0,0,0,0,0,0,0,0,0,0,0,0,0,0,-2.7701,-2.7701,0,-2.7728,-2.7729,-2.7729,-2.7823,-2.7825,-2.7827,-2.7829,-2.7852,-2.7851,-2.7849,0,0,0,0,0,0,0,0,0,0,0,0,0,-2.7725,-2.7724,-2.77,-2.7701,-2.7701,-2.7728,-2.7729,-2.7729,-2.7822,-2.7825,-2.7828,-2.783,-2.7852,-2.7851,-2.7849,0,0,0,0,0,0,0,0,0,0,0,0,0,-2.7729,-2.7724,-2.77,-2.7751,-2.7756,-2.7728,-2.7729,-2.7729,-2.7822,-2.7825,-2.7828,-2.7831,-2.7853,-2.7851,-2.7849,-2.7773,0,0,-2.7843,-2.7842,0,0,0,0,0,0,0,0,-2.7729,-2.7728,-2.7743,-2.7748,-2.7753,-2.7776,-2.7746,-2.7743,-2.7821,-2.7797,-2.7829,-2.7833,-2.7824,-2.7824,-2.7822,-2.7774,-2.7775,-2.7843,-2.7841,-2.784,-2.784,0,0,0,0,0,0,0,-2.7729,-2.7728,-2.7711,-2.7743,-2.7749,-2.7772,-2.7776,-2.7746,-2.7792,-2.7799,-2.7806,-2.7808,-2.7827,-2.7824,-2.7823,-2.7775,-2.7843,-2.7841,-2.784,-2.7839,-2.7667,-2.7664,0,0,0,0,0,0,-2.7722,-2.7727,-2.7711,-2.7712,-2.7749,-2.7769,-2.7773,-2.7765,-2.7792,-2.78,-2.7806,-2.7813,-2.7826,-2.7826,-2.7825,-2.7738,-2.784,-2.7839,-2.7837,-2.767,-2.7666,-2.7662,0,0,0,0,0,0,-2.7722,-2.7719,-2.7709,-2.7722,-2.7722,-2.7765,-2.7755,-2.7764,-2.7761,-2.7797,-2.7806,-2.7794,-2.7828,-2.7828,-2.7786,-2.774,-2.7838,-2.7836,-2.7674,-2.7669,-2.7664,-2.7562,0,0,0,0,0,0,-2.7722,-2.7719,-2.7691,-2.772,-2.7721,-2.767,-2.7752,-2.7762,-2.7758,-2.7767,-2.7789,-2.7796,-2.7831,-2.7788,-2.7783,-2.7739,-2.7834,-2.7678,-2.7672,-2.7666,-2.757,-2.7554,-2.7541,0,0,0,0,0,-2.7723,-2.7659,-2.7689,-2.7686,-2.7687,-2.7668,-2.7668,-2.7711,-2.7754,-2.7726,-2.7749,-2.7795,-2.7746,-2.7783,-2.7779,-2.7732,-2.7681,-2.7674,-2.7666,-2.7576,-2.7557,-2.7541,0,0,0,0,0,0,-2.762,-2.7664,-2.7697,-2.7642,-2.7651,-2.7683,-2.7649,-2.769,-2.7685,-2.7694,-2.7746,-2.775,-2.7701,-2.7713,-2.7753,-2.7661,-2.7721,-2.7712,-2.7654,-2.7637,-2.7622,-2.762,-2.7832,0,0,0,0,0,-2.7592,-2.7574,-2.7613,-2.756,-2.7563,-2.7605,-2.7598,-2.7631,-2.7642,-2.7645,-2.7666,-2.7673,-2.766,-2.7649,-2.7638,-2.7573,-2.7579,-2.7539,-2.7525,-2.7513,-2.7504,-2.7471,-2.7453,-2.7638,-2.7638,-2.7638,0,0,-2.7532,-2.7554,-2.7538,-2.754,-2.7551,-2.753,-2.7607,-2.7581,-2.7566,-2.7641,-2.7603,-2.7618,-2.763,-2.7576,-2.7553,-2.7584,-2.7455,-2.7503,-2.7493,-2.7491,-2.7461,-2.7443,-2.7428,-2.7633,-2.7634,-2.7634,0,0,-2.7411,-2.7426,-2.7385,-2.7395,-2.7411,-2.744,-2.743,-2.7458,-2.7472,-2.7435,-2.7491,-2.7473,-2.7449,-2.7455,-2.7455,-2.734,-2.7382,-2.7335,-2.7259,-2.7226,-2.7212,-2.7199,-2.7158,-2.7142,-2.7327,-2.7327,-2.7327,0,-2.7334,-2.7306,-2.7357,-2.7329,-2.7328,-2.7398,-2.7356,-2.7362,-2.7373,-2.737,-2.7406,-2.7378,-2.7391,-2.734,-2.7312,-2.731,-2.7299,-2.7332,-2.721,-2.7198,-2.7187,-2.7148,-2.7132,-2.7321,-2.7322,-2.7322,-2.7323,0,-2.721,-2.719,-2.7154,-2.7166,-2.7161,-2.7126,-2.7171,-2.716,-2.7194,-2.7219,-2.7182,-2.72,-2.7195,-2.7186,-2.7218,-2.7139,-2.7158,-2.7201,-2.7263,-2.7163,-2.7127,-2.7112,-2.7313,-2.7315,-2.7316,-2.7318,0,0,-2.7022,-2.7066,-2.7052,-2.7059,-2.7083,-2.7068,-2.7037,-2.7034,-2.7023,-2.7029,-2.7003,-2.6983,-2.7024,-2.7023,-2.7057,-2.7028,-2.6937,-2.7075,-2.7076,-2.7048,-2.6851,-2.6817,-2.6799,-2.6966,-2.6963,-2.6961,-2.685,0,-2.6908,-2.6857,-2.6904,-2.6843,-2.6826,-2.6893,-2.6866,-2.6877,-2.69,-2.6888,-2.6914,-2.6898,-2.6953,-2.6954,-2.6929,-2.6953,-2.6897,-2.6962,-2.694,-2.6939,-2.6934,-2.6781,-2.6745,-2.6639,-2.6836,-2.6834,-2.6832,0,-2.6766,-2.6769,-2.6707,-2.6738,-2.6732,-2.6707,-2.6709,-2.6697,-2.6712,-2.6731,-2.6732,-2.6775,-2.6745,-2.6808,-2.6767,-2.681,-2.6804,-2.6815,-2.6812,-2.681,-2.6878,-2.6773,-2.6606,-2.659,-2.6811,-2.6813,-2.6814,0,-2.6635,-2.6623,-2.6585,-2.6589,-2.6624,-2.6604,-2.6618,-2.6636,-2.6632,-2.6634,-2.6632,-2.663,-2.6627,-2.6624,-2.6665,-2.6707,-2.6619,-2.6685,-2.6633,-2.6632,-2.6609,-2.661,-2.6437,-2.6608,-2.6608,-2.6609,-2.6609,0,-2.6501,-2.646,-2.6527,-2.6503,-2.646,-2.6514,-2.647,-2.649,-2.6506,-2.6487,-2.6546,-2.6526,-2.6582,-2.6568,-2.66,-2.6562,-2.656,-2.6574,-2.6583,-2.6568,-2.6566,-2.6563,-2.6571,-2.6604,-2.6605,-2.6606,-2.6607,0,-2.6345,-2.6389,-2.6352,-2.6389,-2.6398,-2.6364,-2.6396,-2.6375,-2.6404,-2.6379,-2.6376,-2.642,-2.6408,-2.6449,-2.6442,-2.6464,-2.6407,-2.6428,-2.6402,-2.6408,-2.6354,-2.6358,-2.6172,-2.615,-2.6336,-2.6334,-2.6333,0,-2.6256,-2.6227,-2.6262,-2.6255,-2.6266,-2.6253,-2.625,-2.6303,-2.6298,-2.6314,-2.6291,-2.6284,-2.6281,-2.6257,-2.6287,-2.6283,-2.6303,-2.6239,-2.6303,-2.6289,-2.6301,-2.6302,-2.6299,-2.6225,-2.6222,-2.6221,-2.6219,0,-2.6092,-2.6116,-2.6111,-2.6113,-2.6109,-2.6113,-2.6121,-2.6111,-2.6169,-2.616,-2.6149,-2.6146,-2.6141,-2.6133,-2.6135,-2.6148,-2.6192,-2.6199,-2.6187,-2.617,-2.6156,-2.6162,-2.6364,-2.6203,-2.6204,-2.6205,-2.6206,-2.6207,-2.5966,-2.5944,-2.5967,-2.5959,-2.5972,-2.5978,-2.5961,-2.599,-2.5982,-2.5983,-2.6015,-2.5997,-2.6015,-2.6023,-2.6032,-2.6019,-2.6048,-2.603,-2.6025,-2.602,-2.601,-2.616,-2.6019,-2.602,-2.602,-2.6021,-2.6021,0,-2.5805,-2.5824,-2.5817,-2.5828,-2.5822,-2.5868,-2.588,-2.5871,-2.5856,-2.587,-2.5867,-2.5854,-2.5847,-2.5878,-2.5876,-2.5859,-2.5879,-2.5856,-2.5857,-2.5859,-2.5984,-2.5995,-2.584,-2.584,-2.584,-2.584,-2.584,-2.584,-2.572,-2.5686,-2.5712,-2.5684,-2.5703,-2.5688,-2.5691,-2.5697,-2.5709,-2.5693,-2.5689,-2.571,-2.5731,-2.5731,-2.5726,-2.5736,-2.5731,-2.5701,-2.5716,-2.5832,-2.585,-2.5867,-2.5877,-2.57,-2.5699,-2.5593,-2.5591,-2.5591]}]]